[[[{"header":{"parameterUnit":"kt","parameterCategory":2,"dx":1,"dy":1,"la1":30.253999710083008,"la2":30.299108505249023,"lo1":-89.0895004272461,"lo2":-89.04439544677734,"nx":28,"ny":28,"refTime":"2022-10-22T21:00:00:Z","depth":"0","parameterNumber":2,"parameterNumberName":"U-component_of_CURRENTS"},"data":[0.0529,0.054,0.0599,0.0613,0.0597,0.0527,0.0484,0.037,0.0173,-0.029,-0.075,-0.115,-0.1729,-0.2393,-0.2573,-0.2509,-0.2268,-0.2379,-0.2098,-0.2025,-0.1973,-0.1924,-0.189,-0.2407,-0.2407,-0.2177,-0.2175,-0.2174,0.0602,0.062,0.0617,0.0642,0.0614,0.0604,0.0499,0.0437,0.0268,-0.0057,-0.0393,-0.1152,-0.1658,-0.1984,-0.2358,-0.2323,-0.2175,-0.2216,-0.2078,-0.1988,-0.1963,-0.195,-0.2488,-0.2489,-0.2489,-0.2489,-0.2489,-0.2489,0.07,0.0691,0.0699,0.0725,0.0684,0.0634,0.0595,0.046,0.0306,0.0047,-0.0219,-0.0619,-0.1163,-0.1589,-0.1681,-0.1859,-0.1628,-0.1792,-0.1706,-0.1609,-0.1555,-0.156,-0.1963,-0.196,-0.1958,-0.1955,-0.1953,0,0.0777,0.0793,0.0792,0.0799,0.0766,0.0725,0.0639,0.0579,0.0458,0.0289,-0.0008,-0.0232,-0.0651,-0.0982,-0.1254,-0.134,-0.1054,-0.1228,-0.1121,-0.1233,-0.1236,-0.1244,-0.1047,-0.1326,-0.1319,-0.1314,-0.1311,-0.1308,0.0814,0.0838,0.087,0.0861,0.0846,0.0821,0.077,0.0719,0.0623,0.0398,0.031,0.0067,-0.0176,-0.0479,-0.0589,-0.0799,-0.0666,-0.1066,-0.0882,-0.0875,-0.086,-0.077,-0.0721,-0.1234,-0.1244,-0.1251,-0.1258,0,0.081,0.0848,0.0882,0.0886,0.0884,0.0878,0.0792,0.0735,0.0671,0.0542,0.0514,0.0396,0.0188,0.0114,-0.0018,-0.0048,-0.027,-0.0348,-0.0614,-0.0722,-0.0824,-0.0755,-0.092,-0.0893,-0.0648,-0.0654,-0.0659,0,0.0789,0.0827,0.0833,0.0844,0.0868,0.0852,0.0826,0.0806,0.0735,0.0642,0.0651,0.053,0.0582,0.0425,0.0364,0.0103,0.0184,0.0012,-0.0077,-0.024,-0.0276,-0.0274,-0.0213,0.0228,0.023,0.0233,0.0235,0,0.0687,0.0755,0.0815,0.0825,0.0809,0.0818,0.08,0.0755,0.0707,0.0692,0.0608,0.067,0.0601,0.0572,0.0402,0.0474,0.0241,0.0318,0.0014,-0.0008,-0.0243,-0.0286,-0.0307,0.0238,0.0239,0.024,0.0241,0,0.0614,0.0632,0.0722,0.0715,0.0702,0.0736,0.069,0.0717,0.0678,0.0638,0.0653,0.0602,0.0653,0.0615,0.0554,0.059,0.0469,0.0403,0.0388,0.0204,0.009,-0.0399,-0.0474,-0.0418,0.0126,0.0127,0.0128,0,0.0493,0.0563,0.0536,0.0611,0.0609,0.0534,0.0573,0.056,0.0509,0.05,0.0515,0.0531,0.0541,0.0529,0.0565,0.0512,0.0467,0.0552,0.0296,0.0287,0.0089,0.0098,-0.0122,-0.0435,0.0143,0.0141,0.014,0,0.0367,0.034,0.0347,0.0353,0.0322,0.0303,0.0356,0.035,0.034,0.0358,0.0392,0.0508,0.0454,0.0501,0.0504,0.0519,0.0472,0.0449,0.0446,0.0275,0.032,0.0134,0.0104,0.0473,0.0474,0.0475,0.0152,0,0.0253,0.0259,0.0254,0.0235,0.0228,0.0232,0.0167,0.0168,0.0129,0.0128,0.019,0.0219,0.0283,0.0316,0.0331,0.0422,0.0316,0.0328,0.0273,0.0355,0.0193,0.0184,0.0268,0.0267,0.0266,0.0265,0,0,0.014,0.0136,0.0017,0.0038,0.0033,-0.0086,-0.004,-0.0043,-0.0037,-0.0028,-0.0066,0.0052,0.0087,0.0214,0.0263,0.0267,0.0185,0.026,0.0327,0.0334,0.034,0.0191,0.0184,0.0263,0.0263,0.0262,0.0262,0,0.0072,-0.0016,-0.0,-0.0021,-0.0084,-0.0115,-0.0123,-0.0166,-0.016,-0.0101,-0.0099,-0.005,0.0022,0.0084,0.0124,0.0238,0.0144,0.0248,0.0331,0.0316,0.0325,0.0332,0.0188,0.0182,0.0259,0.0259,0.0259,0,-0.0023,-0.0084,-0.0094,-0.0159,-0.0194,-0.0178,-0.0252,-0.0265,-0.0213,-0.0248,-0.0168,-0.0156,-0.0102,-0.0015,0.0021,-0.0002,0.0084,0.0104,0.0112,0.0136,0.0118,0.0129,0.0139,0.0003,0.0002,0.0001,0,0,-0.0069,-0.0093,-0.0182,-0.0182,-0.0223,-0.0254,-0.0253,-0.0264,-0.0264,-0.0247,-0.023,-0.0192,-0.0131,-0.0104,-0.0058,0.0018,-0.0036,0.0072,0.0084,0.0094,0.0123,0.0109,0.012,-0.0003,-0.0003,-0.0003,0,0,-0.0086,-0.0197,-0.0224,-0.0247,-0.0271,-0.0306,-0.0293,-0.0302,-0.0258,-0.0263,-0.0257,-0.0249,-0.0178,-0.0165,-0.0214,-0.0061,-0.0108,-0.0098,-0.0075,-0.006,-0.0048,-0.0026,-0.0238,0,0,0,0,0,-0.02,-0.0195,-0.022,-0.0236,-0.0286,-0.0303,-0.0298,-0.0308,-0.0327,-0.0293,-0.0275,-0.029,-0.0175,-0.022,-0.021,-0.0149,-0.0049,-0.0041,-0.0033,0.0015,0.0031,0.0044,0,0,0,0,0,0,-0.0208,-0.0228,-0.022,-0.0269,-0.0282,-0.0302,-0.0332,-0.033,-0.0329,-0.0329,-0.0291,-0.0289,-0.0279,-0.0225,-0.0216,-0.0157,-0.0241,-0.0046,-0.0039,-0.0033,0.002,0.0033,0.0045,0,0,0,0,0,-0.0213,-0.023,-0.0323,-0.0265,-0.0276,-0.0298,-0.0331,-0.0331,-0.0306,-0.031,-0.0306,-0.0321,-0.0278,-0.0271,-0.022,-0.016,-0.0247,-0.0244,-0.0041,-0.0036,-0.0031,0.0027,0,0,0,0,0,0,-0.0218,-0.0181,-0.0323,-0.0324,-0.0285,-0.0293,-0.0299,-0.0331,-0.0284,-0.0285,-0.0341,-0.0342,-0.0277,-0.0272,-0.0266,-0.016,-0.0252,-0.0249,-0.0247,-0.0037,-0.0033,-0.0029,0,0,0,0,0,0,-0.0174,-0.0182,-0.0322,-0.0346,-0.0349,-0.0289,-0.0295,-0.0258,-0.0283,-0.0312,-0.0315,-0.0342,-0.0302,-0.0272,-0.0268,-0.0206,-0.0256,-0.0253,-0.0251,-0.0249,-0.0034,-0.003,0,0,0,0,0,0,-0.0176,-0.0183,-0.0344,-0.0347,-0.0349,-0.0347,-0.0252,-0.0298,-0.0318,-0.0311,-0.0322,-0.0324,-0.0303,-0.0297,-0.0269,-0.0209,-0.0206,-0.0256,-0.0254,-0.0252,-0.0251,0,0,0,0,0,0,0,-0.0178,-0.0147,-0.034,-0.0347,-0.0349,-0.034,-0.0338,-0.0336,-0.0318,-0.032,-0.0321,-0.0323,-0.0274,-0.0271,-0.0267,-0.0211,0,0,-0.0256,-0.0255,0,0,0,0,0,0,0,0,-0.0143,-0.0146,-0.034,-0.0342,-0.0344,-0.034,-0.0338,-0.0337,-0.0318,-0.032,-0.0321,-0.0322,-0.0273,-0.027,-0.0268,0,0,0,0,0,0,0,0,0,0,0,0,0,0,0,-0.0341,-0.0342,0,-0.034,-0.0338,-0.0337,-0.0319,-0.032,-0.0321,-0.0322,-0.0272,-0.027,-0.0268,0,0,0,0,0,0,0,0,0,0,0,0,0,0,0,0,0,0,0,0,0,0,0,0,0,0,0,0,0,0,0,0,0,0,0,0,0,0,0,0,0,0,0,0,0,0,0,0,0,0,0,0,0,0,0,0,0,0,0,0,0,0,0,0,0,0,0,0,0]}],[{"header":{"parameterUnit":"kt","parameterCategory":2,"dx":1,"dy":1,"la1":30.253999710083008,"la2":30.299108505249023,"lo1":-89.0895004272461,"lo2":-89.04439544677734,"nx":28,"ny":28,"refTime":"2022-10-22T21:00:00:Z","depth":"0","parameterNumber":3,"parameterNumberName":"V-component_of_CURRENTS"},"data":[0.1187,0.1246,0.1365,0.1489,0.1589,0.1644,0.1656,0.1735,0.1744,0.1749,0.1738,0.1838,0.2171,0.278,0.2971,0.2946,0.2974,0.2982,0.2898,0.2827,0.2802,0.2777,0.2858,0.3022,0.3022,0.3181,0.3183,0.3184,0.1182,0.1291,0.1463,0.1621,0.1684,0.1766,0.1871,0.1914,0.196,0.1961,0.207,0.23,0.2492,0.2598,0.2667,0.2661,0.2664,0.2651,0.2751,0.2757,0.257,0.265,0.2772,0.2772,0.2772,0.2772,0.2772,0.2772,0.1301,0.1345,0.1478,0.1627,0.1751,0.1809,0.1866,0.1989,0.2098,0.2196,0.2408,0.2484,0.2741,0.2509,0.2424,0.2387,0.2271,0.2364,0.2355,0.2356,0.2453,0.2268,0.2247,0.2246,0.2244,0.2242,0.2241,0,0.1375,0.1413,0.1501,0.165,0.1768,0.1871,0.2014,0.206,0.2291,0.2407,0.2589,0.2677,0.2659,0.2606,0.2387,0.2213,0.2221,0.2123,0.2172,0.239,0.246,0.2492,0.2264,0.2229,0.2227,0.2225,0.2224,0.2223,0.1501,0.1497,0.1638,0.1721,0.1789,0.1914,0.2038,0.2238,0.2339,0.2604,0.2629,0.2703,0.2753,0.2538,0.2353,0.208,0.2097,0.2087,0.2068,0.2156,0.216,0.2183,0.222,0.2201,0.2204,0.2206,0.2208,0,0.1583,0.1635,0.1703,0.1854,0.1913,0.1979,0.2209,0.2315,0.2487,0.2593,0.2623,0.2809,0.2728,0.2567,0.2359,0.2232,0.2085,0.1976,0.2163,0.2172,0.2146,0.2159,0.2133,0.2172,0.1853,0.1853,0.1853,0,0.1699,0.1747,0.1818,0.1852,0.1966,0.2126,0.2266,0.2401,0.2548,0.2621,0.2715,0.2769,0.2623,0.2528,0.2347,0.2159,0.2145,0.2005,0.1992,0.2132,0.2148,0.2204,0.2224,0.1949,0.195,0.1951,0.1951,0,0.1704,0.1835,0.1872,0.194,0.2125,0.2199,0.2317,0.247,0.2549,0.2657,0.272,0.2644,0.2632,0.246,0.2323,0.2306,0.2121,0.2095,0.2023,0.2025,0.2141,0.2157,0.2154,0.1952,0.1953,0.1953,0.1953,0,0.1779,0.1814,0.1881,0.2046,0.2078,0.2189,0.237,0.2484,0.2566,0.2623,0.2616,0.2618,0.2523,0.2477,0.2296,0.2337,0.2246,0.2165,0.216,0.2197,0.2214,0.228,0.2222,0.229,0.2117,0.2118,0.212,0,0.177,0.1808,0.189,0.2011,0.2047,0.2189,0.2292,0.24,0.2476,0.2537,0.2469,0.2527,0.2462,0.2484,0.2381,0.2342,0.2246,0.2308,0.2207,0.2204,0.225,0.2168,0.2319,0.224,0.2139,0.2137,0.2135,0,0.1749,0.1798,0.1807,0.1855,0.2025,0.2094,0.2195,0.2306,0.2366,0.2405,0.246,0.2462,0.2452,0.2469,0.246,0.2367,0.2279,0.2356,0.2354,0.2328,0.2159,0.2191,0.2181,0.2261,0.2259,0.2257,0.215,0,0.1782,0.1812,0.1808,0.1888,0.1976,0.2057,0.2139,0.2222,0.2277,0.2342,0.2386,0.2422,0.248,0.2452,0.2479,0.2424,0.2423,0.2429,0.2429,0.2372,0.2333,0.2321,0.2474,0.2475,0.2476,0.2476,0,0,0.178,0.1793,0.1803,0.1851,0.1909,0.1983,0.2065,0.2143,0.2302,0.2329,0.2346,0.2443,0.2485,0.2506,0.2492,0.2512,0.2483,0.2499,0.2401,0.2393,0.2385,0.2345,0.2333,0.2477,0.2477,0.2478,0.2478,0,0.1792,0.1786,0.1776,0.1855,0.1906,0.1989,0.2011,0.2135,0.2206,0.2319,0.2369,0.2399,0.2501,0.252,0.2542,0.2524,0.2522,0.2516,0.2462,0.2408,0.2399,0.2391,0.235,0.2338,0.2479,0.2479,0.2479,0,0.1816,0.1823,0.1813,0.1879,0.1913,0.1991,0.2037,0.2117,0.2208,0.2288,0.2403,0.245,0.2504,0.2548,0.2568,0.2559,0.2528,0.2566,0.2561,0.257,0.2517,0.2506,0.2496,0.2621,0.2622,0.2623,0,0,0.1836,0.1832,0.1881,0.1881,0.1884,0.199,0.2039,0.2136,0.2234,0.2305,0.2385,0.2437,0.2495,0.2518,0.2588,0.2605,0.2592,0.2584,0.2577,0.2571,0.2577,0.2522,0.2512,0.2625,0.2625,0.2625,0,0,0.1863,0.1869,0.1869,0.1869,0.1949,0.2067,0.2087,0.2179,0.232,0.2319,0.2409,0.2435,0.2506,0.2522,0.2543,0.2559,0.2583,0.2582,0.2556,0.2548,0.2542,0.254,0.2588,0,0,0,0,0,0.1851,0.1846,0.1842,0.184,0.1929,0.2035,0.2065,0.217,0.2193,0.2286,0.2359,0.2392,0.254,0.2562,0.2582,0.256,0.2651,0.2646,0.2642,0.2616,0.2607,0.26,0,0,0,0,0,0,0.1851,0.185,0.1842,0.1931,0.1948,0.2037,0.2076,0.2113,0.2191,0.2213,0.2375,0.2395,0.2459,0.2555,0.2572,0.255,0.2582,0.2649,0.2645,0.2642,0.2613,0.2606,0.26,0,0,0,0,0,0.185,0.1849,0.1948,0.1938,0.1953,0.2067,0.2081,0.2111,0.2235,0.229,0.2321,0.2303,0.2456,0.2477,0.2566,0.254,0.2571,0.2577,0.2647,0.2643,0.2641,0.261,0,0,0,0,0,0,0.1849,0.1959,0.1956,0.1966,0.1934,0.2074,0.2098,0.2109,0.2315,0.2338,0.2213,0.2225,0.2454,0.2471,0.2486,0.2532,0.2562,0.2568,0.2572,0.2644,0.2642,0.2639,0,0,0,0,0,0,0.1956,0.1968,0.1964,0.1953,0.1966,0.2078,0.2099,0.2154,0.2315,0.2238,0.2248,0.2215,0.2379,0.2466,0.2479,0.2568,0.2555,0.256,0.2565,0.2567,0.2642,0.264,0,0,0,0,0,0,0.1964,0.1975,0.1955,0.1964,0.1976,0.2131,0.2133,0.2214,0.232,0.223,0.2324,0.2325,0.2368,0.2388,0.2473,0.2556,0.2565,0.2555,0.2559,0.2562,0.2564,0,0,0,0,0,0,0,0.1971,0.186,0.1847,0.1973,0.1984,0.205,0.2057,0.2065,0.232,0.2322,0.2323,0.2324,0.2521,0.2527,0.2534,0.2547,0,0,0.2554,0.2557,0,0,0,0,0,0,0,0,0.186,0.186,0.1847,0.1846,0.1845,0.2051,0.2057,0.2063,0.2321,0.2322,0.2323,0.2324,0.2522,0.2528,0.2533,0,0,0,0,0,0,0,0,0,0,0,0,0,0,0,0.1847,0.1846,0,0.2052,0.2057,0.2062,0.2321,0.2322,0.2323,0.2323,0.2524,0.2528,0.2533,0,0,0,0,0,0,0,0,0,0,0,0,0,0,0,0,0,0,0,0,0,0,0,0,0,0,0,0,0,0,0,0,0,0,0,0,0,0,0,0,0,0,0,0,0,0,0,0,0,0,0,0,0,0,0,0,0,0,0,0,0,0,0,0,0,0,0,0,0]}]],[[{"header":{"parameterUnit":"kt","parameterCategory":2,"dx":1,"dy":1,"la1":30.253999710083008,"la2":30.299108505249023,"lo1":-89.0895004272461,"lo2":-89.04439544677734,"nx":28,"ny":28,"refTime":"2022-10-22T21:00:00:Z","depth":"2","parameterNumber":2,"parameterNumberName":"U-component_of_CURRENTS"},"data":[-0.0666,-0.0777,-0.0819,-0.089,-0.0891,-0.0876,-0.0871,-0.088,-0.0841,-0.0811,-0.0788,-0.077,-0.0766,-0.0741,-0.0714,-0.0714,-0.0647,-0.0715,-0.0615,-0.0568,-0.0554,-0.0561,-0.0505,0,0,0,0,0,-0.0598,-0.0633,-0.0753,-0.0858,-0.0898,-0.0877,-0.0943,-0.0945,-0.096,-0.0911,-0.0867,-0.0847,-0.086,-0.0782,-0.0708,-0.065,-0.0623,-0.0667,-0.0642,-0.0629,-0.0616,-0.0587,-0.0756,-0.0756,-0.0755,-0.0755,0,0,-0.049,-0.0567,-0.0661,-0.0748,-0.0805,-0.0857,-0.0901,-0.0939,-0.0974,-0.09,-0.0918,-0.0861,-0.0766,-0.0664,-0.0626,-0.0563,-0.054,-0.0529,-0.0522,-0.0514,-0.0484,-0.0505,-0.0623,-0.0622,-0.0621,-0.062,-0.062,0,-0.0432,-0.0432,-0.0541,-0.064,-0.0694,-0.0783,-0.082,-0.0859,-0.0803,-0.0793,-0.078,-0.0741,-0.0678,-0.0614,-0.0535,-0.0521,-0.0353,-0.0428,-0.03,-0.0364,-0.0387,-0.0406,-0.0394,-0.0483,-0.0481,-0.048,-0.0479,-0.0479,-0.0341,-0.0385,-0.0503,-0.0559,-0.0578,-0.0648,-0.0672,-0.0652,-0.0659,-0.06,-0.0589,-0.0536,-0.0492,-0.0466,-0.0354,-0.0313,-0.0292,-0.0388,-0.0345,-0.0234,-0.0255,-0.0248,-0.0242,-0.0461,-0.0463,-0.0465,-0.0467,0,-0.0293,-0.0318,-0.043,-0.05,-0.0516,-0.0573,-0.0605,-0.0618,-0.0526,-0.0483,-0.0423,-0.03,-0.0275,-0.0151,-0.0159,-0.0118,-0.0134,-0.019,-0.0263,-0.0296,-0.0235,-0.0231,-0.0303,-0.0304,-0.0306,-0.0307,-0.0308,0,-0.0229,-0.0292,-0.0345,-0.0397,-0.0488,-0.0479,-0.0509,-0.0466,-0.038,-0.0348,-0.0158,-0.0148,0.0021,0.0033,0.0034,-0.0031,-0.0013,-0.0094,-0.0123,-0.0165,-0.0174,-0.0093,-0.0096,-0.0052,-0.0051,-0.005,-0.0049,0,-0.0118,-0.0229,-0.031,-0.0344,-0.0396,-0.0395,-0.0398,-0.0301,-0.0285,-0.0121,-0.0115,0.0036,0.0035,0.0071,0.0038,0.0066,-0.0001,0.0008,-0.0093,-0.0099,-0.0204,-0.0218,-0.0048,-0.0047,-0.0047,-0.0047,-0.0046,0,-0.0046,-0.0121,-0.0208,-0.0309,-0.0343,-0.0325,-0.0336,-0.0291,-0.0141,-0.0099,0.0005,0.0083,0.0135,0.0115,0.0106,0.0146,0.0068,0.0034,0.0028,-0.0048,-0.0087,-0.024,-0.0233,-0.0075,-0.0075,-0.0074,-0.0074,0,0.0032,-0.0077,-0.0093,-0.0164,-0.0251,-0.0236,-0.0174,-0.0128,-0.0081,-0.0028,0.0058,0.011,0.0129,0.0104,0.0109,0.0082,0.0038,0.0075,-0.0045,-0.0051,-0.0071,-0.0035,-0.0093,-0.0218,-0.0066,-0.0067,-0.0067,0,0.007,-0.0024,-0.0031,-0.0097,-0.0129,-0.0194,-0.01,-0.0106,-0.0067,-0.0009,0.0031,0.009,0.0074,0.008,0.0074,0.0048,0.004,0.0019,0.0016,-0.0031,0.0005,-0.0024,-0.0033,0.0076,0.0076,0.0076,-0.0061,0,0.0053,0.0016,-0.0006,-0.007,-0.0106,-0.0165,-0.0159,-0.0142,-0.0101,-0.0061,-0.0005,-0.0057,-0.006,-0.0009,-0.0053,0.0011,-0.0014,-0.0015,-0.0094,-0.0047,-0.0119,-0.0123,-0.0106,-0.0109,-0.011,-0.0112,0,0,0.0089,0.0012,-0.0045,-0.0093,-0.014,-0.0154,-0.0206,-0.0144,-0.0195,-0.0183,-0.0203,-0.0137,-0.0174,-0.0113,-0.0099,-0.0119,-0.0138,-0.011,-0.0073,-0.0068,-0.0064,-0.0128,-0.013,-0.0115,-0.0116,-0.0117,-0.0117,0,0.0037,0.0004,-0.0028,-0.0086,-0.016,-0.0168,-0.0185,-0.0224,-0.019,-0.0214,-0.018,-0.0209,-0.0202,-0.0202,-0.0189,-0.0151,-0.0141,-0.0079,-0.008,-0.0088,-0.008,-0.0074,-0.0135,-0.0136,-0.0122,-0.0121,-0.0121,0,0.0002,-0.0047,-0.0059,-0.0153,-0.017,-0.0201,-0.0213,-0.0237,-0.0203,-0.0279,-0.0233,-0.0239,-0.0252,-0.0239,-0.024,-0.0294,-0.023,-0.0224,-0.0216,-0.0233,-0.0244,-0.0236,-0.0228,-0.0326,-0.0326,-0.0326,0,0,-0.0034,-0.0062,-0.016,-0.0169,-0.0208,-0.0211,-0.0215,-0.0224,-0.0263,-0.0264,-0.0281,-0.0285,-0.0257,-0.0302,-0.0291,-0.0324,-0.037,-0.0244,-0.0234,-0.0226,-0.0237,-0.0247,-0.0239,-0.0327,-0.0327,-0.0327,0,0,-0.0044,-0.0136,-0.0145,-0.0173,-0.0239,-0.0255,-0.0244,-0.0231,-0.0252,-0.0229,-0.0257,-0.0275,-0.0267,-0.0325,-0.0338,-0.0258,-0.0305,-0.0305,-0.0214,-0.0203,-0.0193,-0.0197,-0.03,0,0,0,0,0,-0.0129,-0.0137,-0.0145,-0.0157,-0.0181,-0.0253,-0.0249,-0.0241,-0.0178,-0.0202,-0.0235,-0.0208,-0.0335,-0.0349,-0.0356,-0.0246,-0.0335,-0.0334,-0.0332,-0.0216,-0.0204,-0.0194,0,0,0,0,0,0,-0.0134,-0.015,-0.0145,-0.0168,-0.0174,-0.0248,-0.0198,-0.0192,-0.0181,-0.0179,-0.0197,-0.0208,-0.0233,-0.0343,-0.0349,-0.0243,-0.0298,-0.0334,-0.0333,-0.0332,-0.0212,-0.0202,-0.0193,0,0,0,0,0,-0.0139,-0.0152,-0.0208,-0.0164,-0.0169,-0.0171,-0.0198,-0.0194,-0.0161,-0.0216,-0.0222,-0.0165,-0.0231,-0.0242,-0.0347,-0.0238,-0.0293,-0.0296,-0.0334,-0.0333,-0.0332,-0.0207,0,0,0,0,0,0,-0.0142,-0.0099,-0.0206,-0.0205,-0.0184,-0.0167,-0.0169,-0.0195,-0.0198,-0.0203,-0.019,-0.019,-0.023,-0.0238,-0.0246,-0.0233,-0.0289,-0.0292,-0.0294,-0.0333,-0.0332,-0.0331,0,0,0,0,0,0,-0.0094,-0.0099,-0.0205,-0.0231,-0.0231,-0.0163,-0.0166,-0.0191,-0.0201,-0.0167,-0.0169,-0.0191,-0.0272,-0.0235,-0.0242,-0.0273,-0.0286,-0.0289,-0.0291,-0.0292,-0.0332,-0.0332,0,0,0,0,0,0,-0.0094,-0.0098,-0.0229,-0.023,-0.023,-0.0201,-0.0186,-0.0231,-0.0159,-0.0168,-0.0163,-0.0165,-0.0273,-0.0275,-0.0238,-0.0267,-0.0272,-0.0286,-0.0288,-0.0289,-0.029,0,0,0,0,0,0,0,-0.0095,-0.009,-0.0237,-0.0229,-0.0229,-0.02,-0.0198,-0.0195,-0.016,-0.0161,-0.0163,-0.0164,-0.0272,-0.0275,-0.0277,-0.0262,0,0,-0.0286,-0.0287,0,0,0,0,0,0,0,0,-0.0086,-0.0089,-0.0237,-0.0238,-0.0239,-0.02,-0.0198,-0.0196,-0.016,-0.0161,-0.0163,-0.0164,-0.0273,-0.0275,-0.0277,0,0,0,0,0,0,0,0,0,0,0,0,0,0,0,-0.0237,-0.0238,0,-0.02,-0.0198,-0.0196,-0.016,-0.0161,-0.0162,-0.0163,-0.0273,-0.0275,-0.0277,0,0,0,0,0,0,0,0,0,0,0,0,0,0,0,0,0,0,0,0,0,0,0,0,0,0,0,0,0,0,0,0,0,0,0,0,0,0,0,0,0,0,0,0,0,0,0,0,0,0,0,0,0,0,0,0,0,0,0,0,0,0,0,0,0,0,0,0,0]}],[{"header":{"parameterUnit":"kt","parameterCategory":2,"dx":1,"dy":1,"la1":30.253999710083008,"la2":30.299108505249023,"lo1":-89.0895004272461,"lo2":-89.04439544677734,"nx":28,"ny":28,"refTime":"2022-10-22T21:00:00:Z","depth":"2","parameterNumber":3,"parameterNumberName":"V-component_of_CURRENTS"},"data":[-0.2382,-0.237,-0.2378,-0.23,-0.2235,-0.2087,-0.1971,-0.1742,-0.1471,-0.1021,-0.0753,-0.0493,-0.0296,-0.0183,-0.0045,0.0035,-0.0083,0.0061,0.0013,-0.043,-0.0456,-0.0487,-0.0235,0,0,0,0,0,-0.2369,-0.2333,-0.2358,-0.2276,-0.2214,-0.2148,-0.1961,-0.1821,-0.1558,-0.1187,-0.0849,-0.0533,-0.0292,-0.0059,0.0079,0.0187,0.0037,0.0183,-0.0146,-0.0179,-0.0208,-0.0019,0.011,0.0113,0.0115,0.0117,0,0,-0.2296,-0.2319,-0.2249,-0.2232,-0.2165,-0.2049,-0.1977,-0.1768,-0.1567,-0.1192,-0.0994,-0.0647,-0.0452,-0.0056,0.0082,0.0143,0.0038,-0.0164,-0.019,-0.0216,-0.0018,0.0132,0.0109,0.011,0.0111,0.0112,0.0112,0,-0.2192,-0.2131,-0.2126,-0.208,-0.2025,-0.1973,-0.1833,-0.1755,-0.1453,-0.128,-0.0985,-0.0752,-0.0419,-0.0198,-0.0029,-0.0071,-0.0295,-0.0308,-0.0407,-0.0587,-0.0465,-0.0466,-0.0454,-0.0629,-0.0632,-0.0634,-0.0636,-0.0637,-0.1987,-0.2015,-0.1926,-0.1906,-0.1854,-0.1818,-0.1733,-0.1523,-0.1381,-0.1084,-0.0972,-0.0771,-0.0448,-0.0339,-0.0218,-0.0186,-0.0336,-0.0396,-0.0381,-0.0331,-0.0332,-0.0317,-0.0301,-0.0669,-0.0665,-0.0662,-0.0659,0,-0.1869,-0.1766,-0.1788,-0.1668,-0.1639,-0.1662,-0.1495,-0.1394,-0.1194,-0.0974,-0.0912,-0.0587,-0.0446,-0.0307,-0.0492,-0.0418,-0.0503,-0.056,-0.0582,-0.0581,-0.0368,-0.034,-0.0506,-0.0496,-0.0487,-0.0479,-0.0473,0,-0.1596,-0.1635,-0.1477,-0.1501,-0.1541,-0.1398,-0.1355,-0.1163,-0.09,-0.0731,-0.0459,-0.036,-0.0254,-0.023,-0.0309,-0.0315,-0.0523,-0.0461,-0.0474,-0.0562,-0.0534,-0.0784,-0.0769,-0.0887,-0.0885,-0.0882,-0.0881,0,-0.1278,-0.1331,-0.1381,-0.1377,-0.1194,-0.1186,-0.1045,-0.0751,-0.0638,-0.0353,-0.0282,-0.0124,-0.0139,-0.0243,-0.0265,-0.0255,-0.0496,-0.0538,-0.0446,-0.0425,-0.0652,-0.0634,-0.0878,-0.0877,-0.0877,-0.0876,-0.0875,0,-0.102,-0.1018,-0.113,-0.1033,-0.1007,-0.0984,-0.0731,-0.0657,-0.0286,-0.0176,-0.0019,0.012,0.0116,0.0084,-0.0086,0.0042,-0.017,-0.0302,-0.0317,-0.0093,-0.0047,-0.0274,-0.0379,-0.0454,-0.045,-0.0446,-0.0442,0,-0.0713,-0.0825,-0.0742,-0.078,-0.0746,-0.0486,-0.0396,-0.0213,-0.0012,0.0131,0.0239,0.0243,0.0323,0.0248,0.0171,0.0087,-0.0112,0.0054,-0.0343,-0.0357,0.0074,0.0018,-0.0077,-0.0322,-0.0391,-0.0396,-0.04,0,-0.0483,-0.0333,-0.0366,-0.0337,-0.0184,-0.0208,-0.0024,0.009,0.0239,0.0293,0.0323,0.0284,0.0337,0.0273,0.0261,0.0093,-0.003,0.0045,0.0033,0.0031,-0.0325,0.0042,0.0042,-0.0043,-0.0049,-0.0053,-0.0359,0,-0.0144,-0.0164,-0.016,-0.0084,-0.009,-0.0101,0.0098,0.0197,0.0396,0.0473,0.0473,0.0351,0.027,0.0298,0.0232,0.0163,0.0136,0.0115,0.006,-0.0028,-0.0159,-0.019,0.0124,0.012,0.0117,0.0115,0,0,0.0057,0.0009,0.015,0.0078,0.0094,0.0388,0.0301,0.0441,0.0401,0.043,0.0426,0.0391,0.0325,0.027,0.0232,0.0172,0.0083,0.0198,-0.0009,-0.0021,-0.0034,-0.0158,-0.0184,0.0109,0.0108,0.0107,0.0106,0,0.0139,0.0259,0.0212,0.0185,0.0274,0.0389,0.0396,0.0476,0.0533,0.0441,0.0541,0.0458,0.0343,0.0286,0.0248,0.014,0.0166,0.0187,0.0114,-0.0027,-0.0035,-0.0044,-0.0165,-0.0187,0.0099,0.0099,0.0099,0,0.0288,0.0333,0.0348,0.0303,0.0417,0.0419,0.0513,0.0552,0.0567,0.0517,0.0557,0.0534,0.0416,0.0325,0.0275,0.0209,0.0094,0.0177,0.0183,0.0137,-0.0013,-0.0025,-0.0034,0.0115,0.0118,0.0119,0,0,0.033,0.0335,0.0365,0.0326,0.0381,0.0505,0.0529,0.0563,0.0539,0.0531,0.0518,0.0485,0.0448,0.0349,0.0296,0.0152,0.0041,0.0199,0.0197,0.0198,0.0155,0.0004,-0.0009,0.0127,0.0127,0.0127,0,0,0.0343,0.0437,0.0521,0.0473,0.0433,0.0508,0.0553,0.0616,0.0548,0.0657,0.0626,0.0593,0.0528,0.0391,0.0483,0.0364,0.0334,0.0313,0.0528,0.0525,0.0522,0.0515,0.0595,0,0,0,0,0,0.0505,0.0432,0.051,0.0523,0.0598,0.0498,0.0509,0.0592,0.0802,0.0674,0.0664,0.0752,0.0384,0.0464,0.045,0.0565,0.0224,0.0207,0.0191,0.044,0.0437,0.0434,0,0,0,0,0,0,0.051,0.0516,0.0514,0.0593,0.0617,0.0505,0.0702,0.0721,0.08,0.0805,0.0764,0.075,0.0704,0.0479,0.0464,0.0576,0.0601,0.0217,0.0203,0.0189,0.0439,0.0436,0.0434,0,0,0,0,0,0.0515,0.052,0.0599,0.0598,0.0617,0.0729,0.0699,0.0716,0.0768,0.0735,0.0728,0.0828,0.0705,0.0687,0.0471,0.0585,0.0611,0.0606,0.0208,0.0196,0.0186,0.0437,0,0,0,0,0,0,0.0519,0.0534,0.0607,0.0621,0.0594,0.0728,0.0738,0.0712,0.0689,0.0693,0.0789,0.0791,0.0706,0.0692,0.0678,0.059,0.062,0.0614,0.0611,0.0199,0.019,0.0182,0,0,0,0,0,0,0.0535,0.0542,0.0614,0.0603,0.0615,0.0727,0.0736,0.0674,0.068,0.0738,0.0746,0.0789,0.0669,0.0695,0.0684,0.0593,0.0627,0.0621,0.0617,0.0615,0.0192,0.0185,0,0,0,0,0,0,0.0542,0.0549,0.0598,0.0608,0.0619,0.077,0.0667,0.0695,0.0817,0.073,0.0817,0.0817,0.0667,0.0661,0.0689,0.0602,0.0595,0.0627,0.0623,0.062,0.0618,0,0,0,0,0,0,0,0.0548,0.045,0.0541,0.0613,0.0622,0.0755,0.0757,0.0759,0.0817,0.0817,0.0817,0.0817,0.0659,0.0653,0.0646,0.061,0,0,0.0627,0.0624,0,0,0,0,0,0,0,0,0.0452,0.045,0.0542,0.0546,0.0549,0.0755,0.0757,0.0758,0.0817,0.0817,0.0817,0.0817,0.0657,0.0652,0.0647,0,0,0,0,0,0,0,0,0,0,0,0,0,0,0,0.0542,0.0545,0,0.0755,0.0757,0.0758,0.0817,0.0817,0.0817,0.0817,0.0656,0.0652,0.0648,0,0,0,0,0,0,0,0,0,0,0,0,0,0,0,0,0,0,0,0,0,0,0,0,0,0,0,0,0,0,0,0,0,0,0,0,0,0,0,0,0,0,0,0,0,0,0,0,0,0,0,0,0,0,0,0,0,0,0,0,0,0,0,0,0,0,0,0,0]}]],[[{"header":{"parameterUnit":"kt","parameterCategory":2,"dx":1,"dy":1,"la1":30.253999710083008,"la2":30.299108505249023,"lo1":-89.0895004272461,"lo2":-89.04439544677734,"nx":28,"ny":28,"refTime":"2022-10-22T21:00:00:Z","depth":"4","parameterNumber":2,"parameterNumberName":"U-component_of_CURRENTS"},"data":[-0.0588,-0.0644,-0.065,-0.0693,-0.0714,-0.078,-0.0805,-0.0829,-0.0791,-0.0822,-0.0768,-0.0821,-0.075,-0.079,-0.0705,-0.0711,-0.0637,-0.0763,-0.0762,-0.0646,-0.0642,-0.0639,-0.0673,0,0,0,0,0,-0.0601,-0.0608,-0.0676,-0.0747,-0.0827,-0.0863,-0.0924,-0.0936,-0.0968,-0.091,-0.0909,-0.0869,-0.0808,-0.0791,-0.0737,-0.0823,-0.0721,-0.0765,-0.0665,-0.0644,-0.0639,-0.0675,0,0,0,0,0,0,-0.0632,-0.0646,-0.074,-0.0807,-0.089,-0.0912,-0.0922,-0.0933,-0.0924,-0.0945,-0.0934,-0.0901,-0.0898,-0.0831,-0.0752,-0.0695,-0.0698,-0.0646,-0.0642,-0.0637,-0.0666,-0.0725,-0.0691,0,0,0,0,0,-0.0662,-0.0718,-0.0766,-0.0862,-0.0925,-0.0958,-0.0988,-0.0977,-0.0991,-0.1024,-0.0974,-0.0939,-0.091,-0.0835,-0.0751,-0.0665,-0.0642,-0.0612,-0.061,-0.0622,-0.0664,-0.0692,-0.0699,-0.0623,-0.0622,-0.0622,-0.0622,0,-0.0735,-0.0749,-0.0864,-0.091,-0.0972,-0.0988,-0.0992,-0.1,-0.0999,-0.1007,-0.1011,-0.0998,-0.0977,-0.083,-0.0785,-0.0677,-0.0641,-0.0601,-0.0614,-0.0657,-0.0685,-0.0694,-0.0702,-0.0618,-0.0618,-0.0619,-0.0619,0,-0.0768,-0.0854,-0.0902,-0.098,-0.1003,-0.0996,-0.1041,-0.1012,-0.0996,-0.0986,-0.099,-0.0966,-0.0933,-0.0853,-0.0748,-0.0707,-0.0626,-0.0591,-0.0597,-0.0623,-0.069,-0.0699,-0.0612,-0.0613,-0.0615,-0.0615,-0.0616,0,-0.0865,-0.0898,-0.1022,-0.1029,-0.1035,-0.1061,-0.1035,-0.1008,-0.0983,-0.0959,-0.0936,-0.0916,-0.0857,-0.0806,-0.0745,-0.0689,-0.0651,-0.0638,-0.0657,-0.0651,-0.0661,-0.069,-0.0706,-0.0559,-0.0559,-0.056,-0.056,0,-0.0913,-0.102,-0.1052,-0.1068,-0.1111,-0.1113,-0.1104,-0.1038,-0.1006,-0.0951,-0.0962,-0.0871,-0.0861,-0.0792,-0.0743,-0.0772,-0.0653,-0.0686,-0.0674,-0.0681,-0.0698,-0.0713,-0.056,-0.056,-0.056,-0.056,-0.056,0,-0.1011,-0.1066,-0.1101,-0.1154,-0.1161,-0.1162,-0.1107,-0.1066,-0.0994,-0.0978,-0.0927,-0.0922,-0.0835,-0.0838,-0.0742,-0.0801,-0.0766,-0.0737,-0.0736,-0.0823,-0.0894,-0.0897,-0.0773,-0.0775,-0.0776,-0.0777,-0.0779,0,-0.102,-0.1088,-0.1164,-0.1188,-0.12,-0.1219,-0.1163,-0.1124,-0.1095,-0.1053,-0.0975,-0.0933,-0.0917,-0.0918,-0.0849,-0.0847,-0.0775,-0.0817,-0.0859,-0.086,-0.0912,-0.0807,-0.0831,-0.0799,-0.0796,-0.0794,-0.0793,0,-0.1024,-0.1169,-0.1187,-0.1221,-0.1262,-0.125,-0.1217,-0.117,-0.1137,-0.1115,-0.1062,-0.096,-0.0973,-0.0955,-0.0949,-0.0893,-0.0807,-0.0971,-0.0972,-0.0956,-0.0771,-0.0827,-0.0821,-0.0844,-0.0842,-0.0839,-0.0807,0,-0.1076,-0.1158,-0.1182,-0.1248,-0.1252,-0.1265,-0.1231,-0.124,-0.1247,-0.1203,-0.1158,-0.1135,-0.1114,-0.1078,-0.1091,-0.0996,-0.1063,-0.1086,-0.1136,-0.1055,-0.1057,-0.1046,-0.1215,-0.1217,-0.1219,-0.122,0,0,-0.1056,-0.1143,-0.1207,-0.1244,-0.1238,-0.1268,-0.127,-0.1248,-0.1269,-0.1251,-0.1297,-0.1248,-0.1261,-0.1174,-0.1135,-0.1163,-0.1195,-0.1212,-0.1106,-0.1093,-0.1081,-0.1077,-0.1064,-0.1224,-0.1224,-0.1225,-0.1226,0,-0.1063,-0.1152,-0.1208,-0.122,-0.1252,-0.123,-0.1265,-0.1259,-0.1268,-0.1279,-0.1287,-0.1283,-0.133,-0.1271,-0.1255,-0.12,-0.1255,-0.1227,-0.1165,-0.1123,-0.1107,-0.1094,-0.1087,-0.1074,-0.123,-0.123,-0.123,0,-0.1052,-0.1099,-0.1128,-0.1182,-0.1185,-0.1177,-0.1198,-0.1226,-0.1205,-0.1282,-0.1312,-0.133,-0.1341,-0.1324,-0.1348,-0.138,-0.1322,-0.1362,-0.1353,-0.135,-0.131,-0.1292,-0.1276,-0.1476,-0.1477,-0.1477,0,0,-0.1056,-0.113,-0.1124,-0.117,-0.1182,-0.1175,-0.1181,-0.1201,-0.1228,-0.1269,-0.1314,-0.1352,-0.1343,-0.1389,-0.1398,-0.1418,-0.1428,-0.1388,-0.1376,-0.1366,-0.1358,-0.1316,-0.1299,-0.1479,-0.1479,-0.1479,0,0,-0.1025,-0.1066,-0.1095,-0.1151,-0.1152,-0.1101,-0.1129,-0.1152,-0.1224,-0.1263,-0.1304,-0.1328,-0.1372,-0.1416,-0.1432,-0.1393,-0.1445,-0.1445,-0.1355,-0.1342,-0.1331,-0.1309,-0.1449,0,0,0,0,0,-0.1004,-0.1052,-0.1078,-0.1084,-0.1101,-0.108,-0.1078,-0.1107,-0.1152,-0.1199,-0.1256,-0.1294,-0.1405,-0.1421,-0.1436,-0.1387,-0.1499,-0.1496,-0.1492,-0.1381,-0.1366,-0.1354,0,0,0,0,0,0,-0.1006,-0.1016,-0.1074,-0.1027,-0.1028,-0.1079,-0.1085,-0.1092,-0.1151,-0.1167,-0.127,-0.1292,-0.1305,-0.1416,-0.143,-0.1381,-0.1445,-0.1498,-0.1495,-0.1492,-0.1376,-0.1364,-0.1353,0,0,0,0,0,-0.1007,-0.1015,-0.1064,-0.1024,-0.1026,-0.1046,-0.109,-0.1097,-0.1178,-0.1191,-0.1216,-0.1214,-0.1299,-0.1321,-0.1424,-0.1372,-0.1436,-0.1441,-0.1496,-0.1493,-0.1491,-0.137,0,0,0,0,0,0,-0.1007,-0.1011,-0.1062,-0.1059,-0.1066,-0.1048,-0.1059,-0.11,-0.1206,-0.1222,-0.1129,-0.1138,-0.1295,-0.1313,-0.1329,-0.1364,-0.1428,-0.1433,-0.1436,-0.1494,-0.1492,-0.149,0,0,0,0,0,0,-0.1004,-0.1009,-0.1061,-0.1113,-0.1117,-0.105,-0.106,-0.1096,-0.1213,-0.1143,-0.115,-0.1133,-0.132,-0.1306,-0.1319,-0.1368,-0.1423,-0.1427,-0.1431,-0.1433,-0.1492,-0.1491,0,0,0,0,0,0,-0.1005,-0.1009,-0.1115,-0.1117,-0.1121,-0.109,-0.1087,-0.1144,-0.1142,-0.1142,-0.1154,-0.1159,-0.1315,-0.1327,-0.1312,-0.1354,-0.1365,-0.1423,-0.1426,-0.1428,-0.143,0,0,0,0,0,0,0,-0.1005,-0.1002,-0.1074,-0.1121,-0.1124,-0.1025,-0.1025,-0.1025,-0.1143,-0.1148,-0.1153,-0.1157,-0.1396,-0.1401,-0.1406,-0.1343,0,0,-0.1422,-0.1425,0,0,0,0,0,0,0,0,-0.0998,-0.1001,-0.1074,-0.1073,-0.1072,-0.1025,-0.1025,-0.1025,-0.1144,-0.1148,-0.1152,-0.1155,-0.1397,-0.1401,-0.1406,0,0,0,0,0,0,0,0,0,0,0,0,0,0,0,-0.1074,-0.1073,0,-0.1025,-0.1025,-0.1025,-0.1144,-0.1147,-0.1151,-0.1154,-0.1398,-0.1402,-0.1405,0,0,0,0,0,0,0,0,0,0,0,0,0,0,0,0,0,0,0,0,0,0,0,0,0,0,0,0,0,0,0,0,0,0,0,0,0,0,0,0,0,0,0,0,0,0,0,0,0,0,0,0,0,0,0,0,0,0,0,0,0,0,0,0,0,0,0,0,0]}],[{"header":{"parameterUnit":"kt","parameterCategory":2,"dx":1,"dy":1,"la1":30.253999710083008,"la2":30.299108505249023,"lo1":-89.0895004272461,"lo2":-89.04439544677734,"nx":28,"ny":28,"refTime":"2022-10-22T21:00:00:Z","depth":"4","parameterNumber":3,"parameterNumberName":"V-component_of_CURRENTS"},"data":[0.0115,0.012,0.0143,0.0087,0.0073,0.0058,0.0048,0.0057,0.0028,0.0034,0.0035,0.0044,0.0051,0.0067,0.0028,0.0032,0.0008,0.0084,0.0082,0.0078,0.0083,0.0089,0.0033,0,0,0,0,0,0.0163,0.016,0.0164,0.017,0.0166,0.0171,0.0164,0.016,0.0156,0.0093,0.0074,0.0083,0.0045,0.0094,0.0035,0.0136,0.0105,0.0066,0.0059,0.0081,0.0088,0.0031,0,0,0,0,0,0,0.0218,0.0224,0.0248,0.026,0.0255,0.0222,0.022,0.0174,0.0132,0.0086,0.0122,0.0112,0.0137,0.011,0.0163,0.0127,0.0088,0.0041,0.0049,0.0056,0.0004,-0.0065,-0.0048,0,0,0,0,0,0.0258,0.0284,0.0323,0.0325,0.0319,0.0322,0.028,0.024,0.0185,0.0179,0.0139,0.0096,0.0117,0.0112,0.0124,0.016,0.0159,0.0177,0.0179,0.0111,0.0066,0.0078,0.0076,0.0112,0.0113,0.0114,0.0114,0,0.0262,0.0308,0.0374,0.0379,0.0388,0.0378,0.0351,0.0305,0.0259,0.0215,0.0188,0.0151,0.0114,0.014,0.0173,0.0186,0.0198,0.0195,0.0123,0.0076,0.0088,0.0084,0.008,0.0119,0.0119,0.0119,0.0118,0,0.0249,0.0289,0.0372,0.0421,0.0433,0.0436,0.0389,0.0362,0.0285,0.021,0.0149,0.0098,0.0087,0.0094,0.0158,0.0126,0.0176,0.0196,0.022,0.0237,0.0093,0.0087,0.0128,0.0126,0.0124,0.0123,0.0122,0,0.021,0.0282,0.0307,0.0344,0.0413,0.0415,0.0423,0.0397,0.0319,0.0271,0.0158,0.0128,0.0064,0.0088,0.0095,0.01,0.0158,0.0102,0.0117,0.0148,0.0143,0.0155,0.0149,0.0201,0.0201,0.02,0.02,0,0.0101,0.0204,0.0284,0.0313,0.037,0.0395,0.0394,0.0361,0.0334,0.0237,0.0168,0.0131,0.0065,0.008,0.0069,0.0029,0.0139,0.0125,0.011,0.0105,0.015,0.0145,0.02,0.02,0.0199,0.0199,0.0199,0,0.0031,0.0059,0.0175,0.0228,0.0254,0.0308,0.033,0.0355,0.0302,0.0241,0.0157,0.0088,0.0065,0.0012,0.0049,-0.0002,0.0017,0.0053,0.0057,-0.0007,0.0,0.0004,0.0093,0.0092,0.0091,0.009,0.009,0,-0.0109,-0.0018,-0.0008,0.01,0.0158,0.0138,0.0187,0.0198,0.0156,0.014,0.0095,0.0077,0.0016,-0.0039,-0.002,0.001,0.0038,0.0004,0.0054,0.0056,-0.0053,0.0013,0.0024,0.0077,0.0078,0.008,0.008,0,-0.0216,-0.0187,-0.0183,-0.0149,-0.0111,-0.0045,-0.0018,0.0058,0.0048,0.0016,0.003,0.0059,-0.0033,-0.0012,-0.0022,0.0002,0.0023,-0.0053,-0.005,-0.0081,0.0074,0.0006,0.0007,0.0017,0.0018,0.002,0.0071,0,-0.0275,-0.0269,-0.0257,-0.0207,-0.0165,-0.0108,-0.0063,-0.0073,-0.0126,-0.0098,-0.0101,-0.0076,-0.0067,-0.006,-0.0055,-0.0024,-0.0058,-0.004,-0.0105,-0.0037,-0.0019,-0.0012,-0.0096,-0.0096,-0.0096,-0.0096,0,0,-0.0376,-0.0327,-0.0359,-0.0308,-0.0257,-0.0281,-0.0192,-0.0172,-0.0111,-0.0109,-0.0189,-0.0127,-0.0139,-0.0066,-0.0058,-0.0028,-0.0043,-0.0166,-0.0052,-0.0047,-0.0043,-0.0024,-0.0017,-0.0096,-0.0096,-0.0097,-0.0097,0,-0.0349,-0.0413,-0.0393,-0.0343,-0.0304,-0.0245,-0.0259,-0.0183,-0.0206,-0.0154,-0.0169,-0.0176,-0.0173,-0.0136,-0.0119,-0.0033,-0.0136,-0.0079,-0.0104,-0.0054,-0.0049,-0.0045,-0.0025,-0.0019,-0.0097,-0.0097,-0.0097,0,-0.0368,-0.0358,-0.0361,-0.0301,-0.0266,-0.0182,-0.0212,-0.0194,-0.0146,-0.0187,-0.0194,-0.0204,-0.0179,-0.016,-0.0179,-0.0209,-0.0196,-0.0219,-0.0215,-0.024,-0.0192,-0.0184,-0.0178,-0.0273,-0.0274,-0.0275,0,0,-0.0356,-0.0376,-0.0278,-0.0281,-0.0261,-0.02,-0.0174,-0.0181,-0.0147,-0.0167,-0.0203,-0.0226,-0.0201,-0.0243,-0.0222,-0.021,-0.0205,-0.0245,-0.0237,-0.023,-0.0252,-0.0202,-0.0193,-0.0279,-0.0279,-0.0279,0,0,-0.0329,-0.0277,-0.0297,-0.0292,-0.0219,-0.0099,-0.0113,-0.0113,-0.012,-0.0192,-0.0223,-0.0242,-0.0269,-0.0278,-0.032,-0.0312,-0.0336,-0.0327,-0.0351,-0.0341,-0.0332,-0.0368,-0.0441,0,0,0,0,0,-0.0259,-0.0266,-0.0284,-0.0275,-0.019,-0.0071,-0.0055,-0.0081,-0.0163,-0.0167,-0.0188,-0.0299,-0.0286,-0.0324,-0.0331,-0.0387,-0.0332,-0.0323,-0.0314,-0.0338,-0.0326,-0.0317,0,0,0,0,0,0,-0.0254,-0.0242,-0.0281,-0.0166,-0.0145,-0.0072,-0.0134,-0.0137,-0.0167,-0.0188,-0.0271,-0.0296,-0.0318,-0.0329,-0.0333,-0.0387,-0.044,-0.0329,-0.0321,-0.0313,-0.0334,-0.0324,-0.0316,0,0,0,0,0,-0.0249,-0.024,-0.0133,-0.0164,-0.0146,-0.0145,-0.0142,-0.0146,-0.0199,-0.0212,-0.0238,-0.024,-0.031,-0.0327,-0.0332,-0.0384,-0.0438,-0.0439,-0.0323,-0.0317,-0.0311,-0.0329,0,0,0,0,0,0,-0.0246,-0.0218,-0.0127,-0.0117,-0.0245,-0.0154,-0.0153,-0.0153,-0.0228,-0.0245,-0.0177,-0.0191,-0.0303,-0.0318,-0.0329,-0.038,-0.0436,-0.0437,-0.0438,-0.0319,-0.0314,-0.0309,0,0,0,0,0,0,-0.0222,-0.0211,-0.0122,-0.0224,-0.0227,-0.0162,-0.0162,-0.015,-0.0236,-0.0193,-0.0203,-0.0184,-0.0363,-0.0309,-0.032,-0.029,-0.0434,-0.0435,-0.0436,-0.0437,-0.0315,-0.0311,0,0,0,0,0,0,-0.0216,-0.0206,-0.0227,-0.0228,-0.0231,-0.013,-0.0158,-0.0126,-0.0168,-0.0195,-0.019,-0.02,-0.0358,-0.0365,-0.0312,-0.0276,-0.0286,-0.0434,-0.0435,-0.0436,-0.0436,0,0,0,0,0,0,0,-0.021,-0.03,-0.0182,-0.0232,-0.0235,-0.0032,-0.0029,-0.0027,-0.017,-0.0179,-0.0188,-0.0196,-0.0427,-0.0428,-0.043,-0.0265,0,0,-0.0434,-0.0435,0,0,0,0,0,0,0,0,-0.0301,-0.03,-0.0181,-0.0179,-0.0177,-0.0031,-0.0029,-0.0027,-0.0172,-0.0179,-0.0186,-0.0193,-0.0427,-0.0428,-0.043,0,0,0,0,0,0,0,0,0,0,0,0,0,0,0,-0.0181,-0.018,0,-0.0031,-0.0029,-0.0028,-0.0173,-0.0179,-0.0184,-0.019,-0.0428,-0.0429,-0.0429,0,0,0,0,0,0,0,0,0,0,0,0,0,0,0,0,0,0,0,0,0,0,0,0,0,0,0,0,0,0,0,0,0,0,0,0,0,0,0,0,0,0,0,0,0,0,0,0,0,0,0,0,0,0,0,0,0,0,0,0,0,0,0,0,0,0,0,0,0]}]]]